User: anonymous   Login
Location: Unspecified
(0.0000°N, 0.0000°E)
Time: 15:02:06
(UTC+00:00)
Language:

STSS DEMO 1 (USA 208) - Orbit

View from above orbital plane
View from above orbital plane
View from above satellite
View from above satellite

Ground track
Ground track

The orbit data is extracted from the following two-line orbital elements,

1 35937U 09052A   17006.15097761 0.00000000  00000-0  00000-0 0    06
2 35937  57.9887 101.9236 0021464 131.2397 228.7603 12.79322713    03
Epoch (UTC): 06 January 2017 03:37:24
Eccentricity: 0.0021464
inclination: 57.9887°
perigee height: 1327 km
apogee height: 1361 km
right ascension of ascending node: 101.9236°
argument of perigee: 131.2397°
revolutions per day: 12.79322713
mean anomaly at epoch: 228.7603°
orbit number at epoch: 0

The dashed part of the orbit path shows where the satellite is in the earth's shadow,  

DLR